| time (UTC) | temp F | wind direction | speed MPH | gust MPH | rain 1hr in | rain 24hr in | rain mn in | humidity % | barometer mb |
| 20260510023004 | 60 | 175 | 1.0 | 2.0 | 0.00 | 0.02 | 0.02 | 84 | 1016.4 |
| 20260510021502 | 60 | 167 | 1.0 | 2.0 | 0.00 | 0.02 | 0.02 | 85 | 1016.3 |
| 20260510020057 | 60 | 174 | 0.0 | 0.0 | 0.01 | 0.02 | 0.02 | 85 | 1016.3 |
| 20260510014556 | 60 | 174 | 1.0 | 3.0 | 0.02 | 0.02 | 0.02 | 85 | 1016.5 |
| 20260510011556 | 60 | 186 | 1.0 | 3.0 | 0.02 | 0.02 | 0.02 | 80 | 1016.7 |
| 20260510010050 | 61 | 204 | 1.0 | 3.0 | 0.01 | 0.01 | 0.01 | 80 | 1016.9 |
| 20260510004551 | 61 | 200 | 2.0 | 4.0 | 0.00 | 0.00 | 0.00 | 80 | 1017.1 |
| 20260510003104 | 62 | 87 | 1.0 | 5.0 | 0.00 | 0.00 | 0.00 | 80 | 1017.3 |
| 20260510001546 | 61 | 185 | 2.0 | 5.0 | 0.00 | 0.00 | 0.00 | 76 | 1017.6 |
| 20260510000046 | 61 | 178 | 2.0 | 3.0 | 0.00 | 0.00 | 0.00 | 76 | 1017.6 |
| 20260509234558 | 62 | 177 | 1.0 | 3.0 | 0.00 | 0.00 | 0.00 | 76 | 1017.3 |
| 20260509233042 | 62 | 173 | 2.0 | 4.0 | 0.00 | 0.00 | 0.00 | 74 | 1017.3 |
| 20260509231550 | 61 | 236 | 0.0 | 3.0 | 0.00 | 0.00 | 0.00 | 77 | 1017.2 |
| 20260509230035 | 61 | 110 | 0.0 | 2.0 | 0.00 | 0.00 | 0.00 | 79 | 1017.3 |
| 20260509224534 | 62 | 187 | 2.0 | 4.0 | 0.00 | 0.00 | 0.00 | 77 | 1017.2 |
| 20260509223031 | 63 | 19 | 0.0 | 4.0 | 0.00 | 0.00 | 0.00 | 77 | 1017.1 |
| 20260509221530 | 63 | 12 | 1.0 | 2.0 | 0.00 | 0.00 | 0.00 | 75 | 1017.2 |
| 20260509220030 | 63 | 347 | 1.0 | 2.0 | 0.00 | 0.00 | 0.00 | 75 | 1017.3 |
| 20260509214532 | 63 | 8 | 0.0 | 2.0 | 0.00 | 0.00 | 0.00 | 75 | 1017.3 |
| 20260509213027 | 63 | 8 | 0.0 | 5.0 | 0.00 | 0.00 | 0.00 | 75 | 1017.2 |
| 20260509211528 | 63 | 10 | 3.0 | 6.0 | 0.00 | 0.00 | 0.00 | 75 | 1017.1 |
| 20260509210026 | 63 | 12 | 3.0 | 5.0 | 0.00 | 0.00 | 0.00 | 74 | 1016.9 |
| 20260509204525 | 63 | 7 | 4.0 | 9.0 | 0.00 | 0.00 | 0.00 | 74 | 1016.7 |
| 20260509203028 | 63 | 3 | 2.0 | 6.0 | 0.00 | 0.00 | 0.00 | 75 | 1016.6 |
| 20260509201523 | 63 | 19 | 3.0 | 8.0 | 0.00 | 0.00 | 0.00 | 75 | 1016.5 |
| 20260509200025 | 63 | 20 | 4.0 | 9.0 | 0.00 | 0.00 | 0.00 | 75 | 1016.4 |
| 20260509194529 | 63 | 3 | 3.0 | 9.0 | 0.00 | 0.00 | 0.00 | 76 | 1016.3 |
| 20260509193022 | 64 | 329 | 4.0 | 8.0 | 0.00 | 0.00 | 0.00 | 75 | 1016.0 |
| 20260509191521 | 64 | 36 | 2.0 | 5.0 | 0.00 | 0.00 | 0.00 | 75 | 1015.9 |
| 20260509190023 | 64 | 6 | 3.0 | 9.0 | 0.00 | 0.00 | 0.00 | 75 | 1016.0 |
| 20260509184520 | 64 | 13 | 4.0 | 9.0 | 0.00 | 0.00 | 0.00 | 74 | 1016.1 |
| 20260509183026 | 64 | 5 | 4.0 | 10.0 | 0.00 | 0.00 | 0.00 | 72 | 1015.7 |
| 20260509181531 | 65 | 36 | 5.0 | 11.0 | 0.00 | 0.00 | 0.00 | 73 | 1015.8 |
| 20260509180018 | 66 | 341 | 4.0 | 10.0 | 0.00 | 0.00 | 0.00 | 73 | 1015.8 |
| 20260509174516 | 65 | 19 | 6.0 | 13.0 | 0.00 | 0.00 | 0.00 | 74 | 1015.8 |
| 20260509173022 | 65 | 27 | 6.0 | 11.0 | 0.00 | 0.00 | 0.00 | 75 | 1016.0 |
| 20260509171513 | 65 | 354 | 6.0 | 13.0 | 0.00 | 0.00 | 0.00 | 71 | 1016.1 |
| 20260509170011 | 65 | 305 | 6.0 | 11.0 | 0.00 | 0.00 | 0.00 | 74 | 1015.9 |
| 20260509164512 | 65 | 36 | 4.0 | 10.0 | 0.00 | 0.00 | 0.00 | 73 | 1015.9 |
| 20260509163009 | 65 | 5 | 5.0 | 12.0 | 0.00 | 0.00 | 0.00 | 73 | 1015.8 |
| 20260509161507 | 65 | 360 | 3.0 | 8.0 | 0.00 | 0.00 | 0.00 | 72 | 1015.8 |
| 20260509160008 | 65 | 322 | 4.0 | 10.0 | 0.00 | 0.00 | 0.00 | 72 | 1015.9 |
| 20260509154502 | 65 | 13 | 3.0 | 10.0 | 0.00 | 0.00 | 0.00 | 72 | 1015.9 |
| 20260509151600 | 64 | 352 | 3.0 | 11.0 | 0.00 | 0.00 | 0.00 | 72 | 1015.9 |
| 20260509150059 | 64 | 300 | 5.0 | 12.0 | 0.00 | 0.00 | 0.00 | 73 | 1015.9 |
| 20260509144559 | 64 | 12 | 3.0 | 11.0 | 0.00 | 0.00 | 0.00 | 73 | 1016.1 |
| 20260509143158 | 65 | 332 | 5.0 | 9.0 | 0.00 | 0.00 | 0.00 | 71 | 1016.2 |
| 20260509141608 | 65 | 31 | 4.0 | 9.0 | 0.00 | 0.00 | 0.00 | 71 | 1016.1 |
| 20260509140156 | 65 | 46 | 4.0 | 10.0 | 0.00 | 0.00 | 0.00 | 71 | 1016.1 |
| 20260509134600 | 65 | 339 | 4.0 | 11.0 | 0.00 | 0.00 | 0.00 | 68 | 1016.2 |
| 20260509133100 | 65 | 342 | 6.0 | 13.0 | 0.00 | 0.00 | 0.00 | 68 | 1016.6 |
| 20260509131554 | 65 | 11 | 5.0 | 12.0 | 0.00 | 0.00 | 0.00 | 65 | 1016.7 |
| 20260509130054 | 65 | 301 | 4.0 | 10.0 | 0.00 | 0.00 | 0.00 | 68 | 1016.7 |
| 20260509124550 | 65 | 336 | 5.0 | 10.0 | 0.00 | 0.00 | 0.00 | 65 | 1016.8 |
| 20260509123052 | 65 | 18 | 4.0 | 9.0 | 0.00 | 0.00 | 0.00 | 69 | 1016.8 |
| 20260509121547 | 65 | 360 | 4.0 | 10.0 | 0.00 | 0.00 | 0.00 | 69 | 1016.8 |
| 20260509120052 | 65 | 356 | 3.0 | 10.0 | 0.00 | 0.00 | 0.00 | 69 | 1016.8 |
| 20260509114545 | 64 | 352 | 3.0 | 9.0 | 0.00 | 0.00 | 0.00 | 70 | 1016.9 |
| 20260509113045 | 65 | 308 | 3.0 | 10.0 | 0.00 | 0.00 | 0.00 | 68 | 1016.9 |
| 20260509111551 | 65 | 326 | 5.0 | 11.0 | 0.00 | 0.00 | 0.00 | 64 | 1016.8 |
| 20260509110044 | 65 | 137 | 3.0 | 12.0 | 0.00 | 0.00 | 0.00 | 64 | 1016.8 |
| 20260509104545 | 65 | 360 | 3.0 | 10.0 | 0.00 | 0.00 | 0.00 | 67 | 1016.9 |
| 20260509103041 | 66 | 26 | 1.0 | 5.0 | 0.00 | 0.00 | 0.00 | 67 | 1016.8 |
| 20260509101543 | 65 | 8 | 3.0 | 9.0 | 0.00 | 0.00 | 0.00 | 67 | 1016.8 |
| 20260509100033 | 65 | 17 | 4.0 | 9.0 | 0.00 | 0.00 | 0.00 | 67 | 1016.7 |
| 20260509094528 | 63 | 337 | 3.0 | 9.0 | 0.00 | 0.00 | 0.00 | 68 | 1016.6 |
| 20260509093038 | 64 | 50 | 3.0 | 6.0 | 0.00 | 0.00 | 0.00 | 68 | 1016.5 |
| 20260509091512 | 63 | 31 | 2.0 | 4.0 | 0.00 | 0.00 | 0.00 | 68 | 1016.4 |
| 20260509090011 | 63 | 356 | 2.0 | 7.0 | 0.00 | 0.00 | 0.00 | 71 | 1016.4 |
| 20260509084520 | 62 | 341 | 2.0 | 5.0 | 0.00 | 0.00 | 0.00 | 73 | 1016.3 |
| 20260509083007 | 61 | 185 | 0.0 | 2.0 | 0.00 | 0.00 | 0.00 | 77 | 1016.2 |
| 20260509081506 | 60 | 181 | 1.0 | 3.0 | 0.00 | 0.00 | 0.00 | 75 | 1016.1 |
| 20260509080015 | 60 | 216 | 2.0 | 3.0 | 0.00 | 0.00 | 0.00 | 75 | 1016.0 |
| 20260509074504 | 59 | 191 | 1.0 | 3.0 | 0.00 | 0.00 | 0.00 | 72 | 1015.7 |
| 20260509073002 | 59 | 176 | 1.0 | 3.0 | 0.00 | 0.00 | 0.00 | 71 | 1015.3 |
| 20260509071502 | 59 | 206 | 2.0 | 4.0 | 0.00 | 0.00 | 0.00 | 74 | 1015.1 |
| 20260509070001 | 59 | 207 | 3.0 | 5.0 | 0.00 | 0.00 | 0.00 | 75 | 1015.0 |
| 20260509064617 | 59 | 215 | 2.0 | 4.0 | 0.00 | 0.00 | 0.00 | 75 | 1015.0 |
| 20260509063100 | 60 | 231 | 1.0 | 3.0 | 0.00 | 0.00 | 0.00 | 74 | 1015.0 |
| 20260509061559 | 59 | 262 | 2.0 | 4.0 | 0.00 | 0.00 | 0.00 | 75 | 1014.8 |
| 20260509060058 | 60 | 208 | 1.0 | 3.0 | 0.00 | 0.00 | 0.00 | 73 | 1014.8 |
| 20260509054603 | 60 | 225 | 1.0 | 4.0 | 0.00 | 0.00 | 0.00 | 73 | 1014.6 |
| 20260509053106 | 60 | 230 | 2.0 | 5.0 | 0.00 | 0.00 | 0.00 | 74 | 1014.4 |
| 20260509051602 | 60 | 244 | 1.0 | 3.0 | 0.00 | 0.00 | 0.00 | 74 | 1014.3 |
| 20260509050104 | 60 | 227 | 1.0 | 4.0 | 0.00 | 0.00 | 0.00 | 74 | 1014.3 |
| 20260509044556 | 60 | 251 | 1.0 | 3.0 | 0.00 | 0.00 | 0.00 | 74 | 1014.2 |
| 20260509043054 | 60 | 223 | 2.0 | 4.0 | 0.00 | 0.00 | 0.00 | 73 | 1014.1 |
| 20260509041555 | 61 | 224 | 0.0 | 0.0 | 0.00 | 0.00 | 0.00 | 71 | 1014.2 |
| 20260509040054 | 61 | 298 | 1.0 | 2.0 | 0.00 | 0.00 | 0.00 | 73 | 1014.2 |
| 20260509034551 | 61 | 291 | 1.0 | 3.0 | 0.00 | 0.00 | 0.00 | 74 | 1014.2 |
| 20260509033059 | 61 | 214 | 1.0 | 3.0 | 0.00 | 0.00 | 0.00 | 74 | 1014.2 |
| 20260509031532 | 61 | 236 | 3.0 | 6.0 | 0.00 | 0.00 | 0.00 | 73 | 1014.2 |
| 20260509030030 | 60 | 207 | 1.0 | 5.0 | 0.00 | 0.00 | 0.00 | 74 | 1014.2 |
| 20260509024528 | 60 | 215 | 2.0 | 3.0 | 0.00 | 0.00 | 0.00 | 74 | 1014.3 |